Regional Weather Roundup
Issued by NWS Northern Indiana

Home | Current Version | Previous Version | Graphics & Text | Print | Product List | Glossary On
Versions: 1 2 3 4 5 6 7 8 9 10 11 12 13 14 15 16 17 18 19 20 21 22 23 24 25 26 27 28 29 30 31 32 33 34 35 36 37 38 39 40 41 42 43 44 45 46 47 48 49 50
000
ASUS43 KIWX 260210
RWRIWX

KIWX WEATHER ROUNDUP
NATIONAL WEATHER SERVICE NORTHERN INDIANA
1000 PM EDT TUE JUL 25 2017

NOTE: "FAIR" INDICATES FEW OR NO CLOUDS BELOW 12,000 FEET WITH NO
SIGNIFICANT WEATHER AND/OR OBSTRUCTIONS TO VISIBILITY.

* THESE STATIONS ARE NOT UNDER NWS QUALITY CONTROL. THEY ALSO MAY NOT
  REPORT WEATHER SUCH AS PRECIPITATION OR FOG.

INZ001>027-260300-
NORTHERN INDIANA

CITY           SKY/WX    TMP DP  RH WIND       PRES   REMARKS
GARY*          MOCLDY    72  55  56 CALM      30.15R
VALPARAISO     CLEAR     71  59  65 S3        30.17R
MICHIGAN CITY* CLEAR     64  55  72 CALM      30.17R
LAPORTE*       CLEAR     65  59  80 CALM      30.16R
KNOX*          PTCLDY    64  61  88 CALM      30.15R
SOUTH BEND     PTCLDY    72  56  57 SE8       30.16R
GOSHEN         CLEAR     68  57  68 SE7       30.16F
MONTICELLO*    CLEAR     70  60  70 CALM      30.14S
LOGANSPORT*    PTCLDY    63  61  94 E6        30.16F
ROCHESTER*     PTCLDY    70  61  73 SE6       30.16F
WARSAW*        CLOUDY    64  59  82 SE3       30.16F
AUBURN*        CLEAR     68  55  64 SE3       30.19F
FORT WAYNE     PTCLDY    67  59  75 E6        30.18S
HUNTINGTON*    CLEAR     68  61  77 SE3       30.18R
PERU/GRISSOM   PTCLDY    69  61  75 E6        30.15S
MARION*        PTCLDY    66  59  77 E6        30.18S

$$
INZ028>050-260300-
CENTRAL INDIANA

CITY           SKY/WX    TMP DP  RH WIND       PRES   REMARKS
LAFAYETTE      CLEAR     68  60  75 E6        30.13F
KOKOMO*        PTCLDY    68  62  81 E5        30.18S
MUNCIE*        CLEAR     67  61  81 E6        30.18S
INDIANAPOLIS   PTCLDY    74  59  59 E6        30.15S

$$
MIZ043>046-050>051-056>058-064>065-071>073-077>080-260300-
SOUTHWEST LOWER MICHIGAN

CITY           SKY/WX    TMP DP  RH WIND       PRES   REMARKS
BATTLE CREEK   PTCLDY    73  55  53 SE7       30.17F
BENTON HARBOR  PTCLDY    67  57  70 CALM      30.16R
COLDWATER*     CLEAR     67  57  69 CALM      30.18S
HILLSDALE*     MOCLDY    66  55  68 SE6       30.19S
HOLLAND        PTCLDY    67  61  81 CALM      30.16R
GRAND RAPIDS   MOCLDY    69  57  65 SE5       30.16R
KALAMAZOO      CLOUDY    71  56  58 SE3       30.16S
STURGIS*       CLEAR     69  58  67 SE7       30.16S
THREE RIVERS*  FAIR      70  56  61 SE5       30.17R

$$
OHZ001>008-015>018-024>025-260300-
NORTHWEST OHIO

CITY           SKY/WX    TMP DP  RH WIND       PRES   REMARKS
WAUSEON*       FAIR      64  59  82 SE7       30.19S
DEFIANCE       CLEAR    N/A N/A N/A E3        30.20R
FINDLAY        CLEAR     69  57  65 E6        30.19R
TOLEDO EXPRESS CLEAR     65  58  78 SE3       30.20R
TOLEDO METCALF CLEAR     67  62  84 E3        30.21R
LIMA           CLEAR     64  62  93 E5        30.20R

$$
AND FOR LAKE MICHIGAN COASTAL AND OPEN LAKE BUOY OBSERVATIONS

STATION/POSITION TEMP    WIND        PRES    VSBY  WAVE
                 AIR SEA DIR/SP/G                  HT/PER
                 (F)     (DEG/KT/KT) (MB)    (MI)  (FT/S)
CALUMET HARBOR    75     150/  5/  9 1020.3R
MICHIGAN CITY     73     170/  5/  6   N/A
BURNS HARBOR      73     190/  3/ 11 1021.7
SAINT JOSEPH      71     170/  2/  3 1021.3
SOUTH LAKE BUOY   72 71  140/  6/  8 1020.4          1
4 MI NW BRIDGMAN  74 74  210/  8/ 10 1020.9          1/ 2
MICHIGAN CITY     74 75  170/  4/  6   N/A           1

$$
&&




USA.gov is the U.S. government's official web portal to all federal, state and local government web resources and services.